FLI255 EKVG-BIRK

Flight info

Callsign FLI255
Flight time 1h 19m
Altitude 32000
Route MY DCT NASBU NASBU1V
Aircraft RJ1H/M-SDFGIRWY/LB1

Departure

Time 2026-04-28 09:40
Airport Vágar Airport (EKVG)

Arrival

Time 2026-04-28 10:59
Airport Reykjavík Domestic Airport (BIRK)
Time Latitude Longitude Altitude Speed Heading
2026-04-28 09:37 62.06133 -7.26805 266 ft 25 kts 118°
2026-04-28 09:37 62.06046 -7.26462 253 ft 28 kts 118°
2026-04-28 09:37 62.05966 -7.26144 243 ft 20 kts 116°
2026-04-28 09:38 62.05948 -7.25998 240 ft 1 kts 137°
2026-04-28 09:38 62.05940 -7.26015 240 ft 4 kts 258°
2026-04-28 09:38 62.05948 -7.26066 241 ft 0 kts 297°
2026-04-28 09:39 62.06064 -7.26533 256 ft 74 kts 298°
2026-04-28 09:39 62.06408 -7.27937 294 ft 137 kts 301°
2026-04-28 09:39 62.06890 -7.29809 743 ft 148 kts 294°
2026-04-28 09:40 62.07346 -7.31766 1526 ft 148 kts 283°
2026-04-28 09:40 62.07684 -7.33903 2127 ft 155 kts 279°
2026-04-28 09:40 62.07932 -7.36139 2500 ft 147 kts 275°
2026-04-28 09:40 62.08102 -7.38443 2713 ft 167 kts 274°
2026-04-28 09:41 62.08314 -7.41054 2947 ft 191 kts 275°
2026-04-28 09:41 62.08567 -7.43921 3392 ft 201 kts 277°
2026-04-28 09:41 62.08862 -7.46836 3756 ft 207 kts 279°
2026-04-28 09:41 62.09223 -7.49824 4230 ft 213 kts 281°
2026-04-28 09:42 62.09698 -7.52963 4388 ft 235 kts 285°
2026-04-28 09:42 62.10299 -7.56353 4771 ft 249 kts 284°
2026-04-28 09:42 62.10841 -7.59870 5172 ft 252 kts 285°
2026-04-28 09:42 62.11483 -7.63391 5921 ft 257 kts 288°
2026-04-28 09:43 62.12184 -7.66925 6671 ft 260 kts 289°
2026-04-28 09:43 62.12904 -7.70496 7364 ft 263 kts 290°
2026-04-28 09:43 62.13651 -7.74094 8101 ft 265 kts 290°
2026-04-28 09:43 62.14397 -7.77721 8860 ft 268 kts 290°
2026-04-28 09:44 62.15138 -7.81350 9660 ft 271 kts 290°
2026-04-28 09:44 62.15892 -7.85067 10475 ft 274 kts 290°
2026-04-28 09:44 62.16652 -7.88860 11193 ft 283 kts 289°
2026-04-28 09:44 62.17429 -7.92830 11683 ft 295 kts 290°
2026-04-28 09:45 62.18249 -7.96936 12182 ft 304 kts 290°
2026-04-28 09:45 62.19085 -8.01153 12698 ft 310 kts 290°
2026-04-28 09:45 62.19918 -8.05440 13218 ft 314 kts 289°
2026-04-28 09:45 62.20770 -8.09768 13746 ft 317 kts 290°
2026-04-28 09:46 62.21631 -8.14146 14210 ft 320 kts 289°
2026-04-28 09:46 62.22481 -8.18574 14600 ft 323 kts 289°
2026-04-28 09:46 62.23341 -8.22961 14974 ft 325 kts 289°
2026-04-28 09:46 62.24203 -8.27440 15366 ft 326 kts 289°
2026-04-28 09:47 62.25080 -8.31943 15718 ft 328 kts 290°
2026-04-28 09:47 62.25960 -8.36492 16037 ft 331 kts 289°
2026-04-28 09:47 62.26839 -8.41079 16362 ft 334 kts 289°
2026-04-28 09:47 62.27743 -8.45696 16698 ft 336 kts 289°
2026-04-28 09:48 62.28640 -8.50349 17030 ft 338 kts 289°
2026-04-28 09:48 62.29540 -8.55023 17401 ft 339 kts 289°
2026-04-28 09:48 62.30427 -8.59651 17742 ft 340 kts 289°
2026-04-28 09:48 62.31332 -8.64374 18069 ft 342 kts 289°
2026-04-28 09:49 62.32237 -8.69109 18404 ft 344 kts 289°
2026-04-28 09:49 62.33148 -8.73879 18714 ft 346 kts 289°
2026-04-28 09:49 62.34064 -8.78679 18983 ft 347 kts 288°
2026-04-28 09:49 62.34985 -8.83508 19213 ft 350 kts 288°
2026-04-28 09:50 62.35907 -8.88372 19476 ft 351 kts 288°
2026-04-28 09:50 62.36829 -8.93259 19753 ft 353 kts 288°
2026-04-28 09:50 62.37751 -8.98171 20031 ft 355 kts 288°
2026-04-28 09:50 62.38672 -9.03113 20326 ft 357 kts 288°
2026-04-28 09:51 62.39597 -9.08096 20618 ft 359 kts 288°
2026-04-28 09:51 62.40508 -9.13041 20888 ft 361 kts 288°
2026-04-28 09:51 62.41435 -9.18083 21174 ft 362 kts 288°
2026-04-28 09:51 62.42361 -9.23154 21464 ft 364 kts 288°
2026-04-28 09:52 62.43293 -9.28244 21739 ft 366 kts 288°
2026-04-28 09:52 62.44251 -9.33348 21995 ft 368 kts 288°
2026-04-28 09:52 62.45203 -9.38497 22243 ft 370 kts 288°
2026-04-28 09:52 62.46146 -9.43674 22508 ft 371 kts 288°
2026-04-28 09:53 62.47111 -9.48868 22766 ft 373 kts 288°
2026-04-28 09:53 62.48059 -9.54107 23023 ft 375 kts 288°
2026-04-28 09:53 62.49009 -9.59292 23290 ft 377 kts 288°
2026-04-28 09:53 62.49975 -9.64573 23584 ft 378 kts 287°
2026-04-28 09:54 62.50942 -9.69871 23855 ft 379 kts 287°
2026-04-28 09:54 62.51912 -9.75194 24075 ft 381 kts 287°
2026-04-28 09:54 62.52860 -9.80548 24294 ft 381 kts 287°
2026-04-28 09:54 62.53821 -9.85907 24514 ft 383 kts 287°
2026-04-28 09:55 62.54788 -9.91286 24727 ft 383 kts 287°
2026-04-28 09:55 62.55759 -9.96685 24896 ft 386 kts 287°
2026-04-28 09:55 62.56730 -10.02112 25140 ft 386 kts 287°
2026-04-28 09:55 62.57688 -10.07463 25404 ft 385 kts 287°
2026-04-28 09:56 62.58634 -10.12891 25677 ft 384 kts 287°
2026-04-28 09:56 62.59583 -10.18308 25942 ft 384 kts 287°
2026-04-28 09:56 62.60534 -10.23707 26212 ft 383 kts 287°
2026-04-28 09:56 62.61487 -10.29107 26484 ft 382 kts 287°
2026-04-28 09:57 62.62436 -10.34495 26748 ft 381 kts 287°
2026-04-28 09:57 62.63381 -10.39873 27006 ft 381 kts 287°
2026-04-28 09:57 62.64316 -10.45240 27257 ft 376 kts 286°
2026-04-28 09:57 62.65227 -10.50525 27510 ft 372 kts 286°
2026-04-28 09:58 62.66129 -10.55791 27760 ft 372 kts 286°
2026-04-28 09:58 62.67015 -10.60981 28012 ft 371 kts 286°
2026-04-28 09:58 62.67908 -10.66238 28269 ft 370 kts 286°
2026-04-28 09:58 62.68798 -10.71493 28529 ft 369 kts 286°
2026-04-28 09:59 62.69681 -10.76723 28794 ft 368 kts 285°
2026-04-28 09:59 62.70573 -10.81943 29065 ft 367 kts 286°
2026-04-28 09:59 62.71461 -10.87134 29350 ft 365 kts 285°
2026-04-28 09:59 62.72345 -10.92311 29628 ft 364 kts 285°
2026-04-28 10:00 62.73225 -10.97448 29941 ft 360 kts 285°
2026-04-28 10:00 62.74088 -11.02483 30282 ft 357 kts 285°
2026-04-28 10:00 62.74935 -11.07541 30563 ft 353 kts 285°
2026-04-28 10:00 62.75763 -11.12562 30848 ft 350 kts 285°
2026-04-28 10:01 62.76594 -11.17529 31134 ft 346 kts 285°
2026-04-28 10:01 62.77410 -11.22434 31440 ft 342 kts 284°
2026-04-28 10:01 62.78225 -11.27291 31723 ft 338 kts 284°
2026-04-28 10:01 62.79016 -11.32084 32021 ft 333 kts 284°
2026-04-28 10:02 62.79790 -11.36825 32307 ft 329 kts 283°
2026-04-28 10:02 62.80550 -11.41492 32596 ft 324 kts 283°
2026-04-28 10:02 62.81306 -11.46110 32842 ft 320 kts 284°
2026-04-28 10:02 62.82047 -11.50599 33093 ft 317 kts 283°
2026-04-28 10:03 62.82784 -11.55104 33339 ft 312 kts 283°
2026-04-28 10:03 62.83509 -11.59547 33591 ft 308 kts 283°
2026-04-28 10:03 62.84222 -11.63920 33838 ft 303 kts 283°
2026-04-28 10:03 62.84932 -11.68289 33858 ft 305 kts 283°
2026-04-28 10:04 62.86369 -11.77183 33574 ft 321 kts 283°
2026-04-28 10:04 62.87131 -11.81880 33311 ft 333 kts 284°
2026-04-28 10:04 62.87916 -11.86649 33173 ft 340 kts 284°
2026-04-28 10:05 62.89571 -11.96429 33248 ft 345 kts 284°
2026-04-28 10:05 62.91147 -12.06471 33246 ft 352 kts 283°
2026-04-28 10:06 62.92756 -12.16786 33090 ft 364 kts 282°
2026-04-28 10:06 62.93585 -12.22109 32900 ft 373 kts 283°
2026-04-28 10:06 62.94424 -12.27455 32710 ft 378 kts 283°
2026-04-28 10:07 62.95283 -12.32928 32516 ft 380 kts 283°
2026-04-28 10:07 62.96145 -12.38411 32317 ft 379 kts 283°
2026-04-28 10:07 62.97866 -12.49340 32210 ft 378 kts 283°
2026-04-28 10:08 62.99561 -12.60248 32203 ft 377 kts 282°
2026-04-28 10:08 63.01254 -12.71205 32199 ft 379 kts 282°
2026-04-28 10:09 63.02915 -12.82127 32198 ft 379 kts 282°
2026-04-28 10:09 63.04611 -12.93147 32200 ft 379 kts 281°
2026-04-28 10:10 63.06243 -13.04135 32186 ft 376 kts 281°
2026-04-28 10:10 63.07900 -13.15113 32179 ft 378 kts 281°
2026-04-28 10:11 63.09526 -13.26057 32180 ft 378 kts 281°
2026-04-28 10:11 63.11173 -13.37110 32200 ft 378 kts 281°
2026-04-28 10:12 63.12785 -13.48177 32171 ft 378 kts 280°
2026-04-28 10:12 63.14391 -13.59224 32166 ft 377 kts 280°
2026-04-28 10:13 63.15981 -13.70201 32165 ft 377 kts 280°
2026-04-28 10:13 63.17590 -13.81252 32163 ft 376 kts 279°
2026-04-28 10:14 63.19179 -13.92263 32139 ft 375 kts 279°
2026-04-28 10:14 63.20753 -14.03270 32148 ft 375 kts 279°
2026-04-28 10:15 63.22313 -14.14241 32137 ft 376 kts 279°
2026-04-28 10:15 63.23877 -14.25296 32138 ft 376 kts 279°
2026-04-28 10:16 63.25434 -14.36351 32133 ft 375 kts 278°
2026-04-28 10:16 63.26984 -14.47412 32123 ft 375 kts 278°
2026-04-28 10:17 63.28512 -14.58498 32155 ft 375 kts 278°
2026-04-28 10:17 63.30019 -14.69511 32166 ft 375 kts 277°
2026-04-28 10:18 63.31506 -14.80621 32124 ft 374 kts 276°
2026-04-28 10:18 63.33007 -14.91708 32117 ft 374 kts 277°
2026-04-28 10:19 63.34491 -15.02806 32109 ft 374 kts 277°
2026-04-28 10:19 63.35964 -15.13835 32106 ft 374 kts 277°
2026-04-28 10:20 63.37441 -15.24952 32101 ft 374 kts 276°
2026-04-28 10:20 63.38905 -15.36093 32101 ft 374 kts 277°
2026-04-28 10:21 63.40362 -15.47228 32122 ft 374 kts 276°
2026-04-28 10:21 63.41819 -15.58398 32094 ft 375 kts 276°
2026-04-28 10:22 63.43274 -15.69504 32088 ft 375 kts 276°
2026-04-28 10:22 63.44704 -15.80694 32085 ft 374 kts 275°
2026-04-28 10:23 63.46133 -15.91886 32084 ft 374 kts 275°
2026-04-28 10:23 63.47537 -16.03091 32107 ft 375 kts 275°
2026-04-28 10:24 63.48942 -16.14209 32075 ft 374 kts 275°
2026-04-28 10:24 63.50338 -16.25396 32071 ft 373 kts 275°
2026-04-28 10:25 63.51710 -16.36595 32072 ft 373 kts 274°
2026-04-28 10:25 63.53098 -16.47807 32071 ft 373 kts 274°
2026-04-28 10:26 63.54446 -16.59029 32062 ft 373 kts 274°
2026-04-28 10:26 63.55808 -16.70180 32061 ft 373 kts 274°
2026-04-28 10:27 63.57141 -16.81415 32064 ft 373 kts 274°
2026-04-28 10:27 63.58490 -16.92644 32051 ft 372 kts 274°
2026-04-28 10:28 63.59802 -17.03888 32050 ft 372 kts 274°
2026-04-28 10:29 63.61770 -17.20694 32077 ft 372 kts 273°
2026-04-28 10:29 63.63088 -17.31957 32044 ft 372 kts 272°
2026-04-28 10:30 63.64373 -17.43223 32041 ft 371 kts 272°
2026-04-28 10:30 63.65643 -17.54467 32039 ft 371 kts 272°
2026-04-28 10:31 63.66927 -17.65657 32046 ft 372 kts 272°
2026-04-28 10:31 63.68196 -17.76952 32033 ft 372 kts 272°
2026-04-28 10:32 63.69446 -17.88242 32024 ft 371 kts 272°
2026-04-28 10:32 63.70691 -17.99519 32011 ft 370 kts 272°
2026-04-28 10:33 63.71927 -18.10728 32047 ft 371 kts 271°
2026-04-28 10:33 63.73156 -18.22028 32015 ft 370 kts 271°
2026-04-28 10:34 63.74363 -18.33320 32018 ft 370 kts 271°
2026-04-28 10:34 63.75580 -18.44635 32027 ft 371 kts 271°
2026-04-28 10:35 63.76783 -18.55953 32001 ft 370 kts 271°
2026-04-28 10:35 63.77947 -18.67175 31992 ft 370 kts 270°
2026-04-28 10:36 63.79156 -18.78536 31984 ft 372 kts 271°
2026-04-28 10:36 63.80331 -18.89930 31969 ft 371 kts 270°
2026-04-28 10:37 63.81495 -19.01301 32015 ft 371 kts 269°
2026-04-28 10:37 63.82676 -19.12601 31975 ft 371 kts 269°
2026-04-28 10:38 63.83842 -19.24032 31718 ft 379 kts 269°
2026-04-28 10:38 63.84418 -19.29909 31292 ft 382 kts 269°
2026-04-28 10:38 63.84995 -19.35724 30832 ft 374 kts 269°
2026-04-28 10:38 63.85571 -19.41416 30340 ft 368 kts 269°
2026-04-28 10:39 63.86123 -19.47036 29832 ft 363 kts 268°
2026-04-28 10:39 63.86661 -19.52608 29296 ft 359 kts 268°
2026-04-28 10:39 63.87189 -19.58131 28764 ft 358 kts 268°
2026-04-28 10:39 63.87713 -19.63574 28252 ft 358 kts 268°
2026-04-28 10:40 63.88256 -19.69083 27747 ft 359 kts 269°
2026-04-28 10:40 63.88801 -19.74631 27231 ft 362 kts 269°
2026-04-28 10:40 63.89344 -19.80226 26738 ft 364 kts 269°
2026-04-28 10:40 63.89884 -19.85857 26249 ft 365 kts 269°
2026-04-28 10:41 63.90417 -19.91501 25793 ft 367 kts 268°
2026-04-28 10:41 63.90954 -19.97175 25317 ft 368 kts 269°
2026-04-28 10:41 63.91502 -20.02866 24880 ft 370 kts 269°
2026-04-28 10:41 63.92059 -20.08498 24403 ft 370 kts 269°
2026-04-28 10:42 63.92600 -20.14204 23933 ft 370 kts 269°
2026-04-28 10:42 63.93141 -20.19921 23461 ft 370 kts 269°
2026-04-28 10:42 63.93693 -20.25642 22909 ft 370 kts 269°
2026-04-28 10:42 63.94227 -20.31358 22357 ft 368 kts 268°
2026-04-28 10:43 63.94621 -20.37051 21828 ft 361 kts 265°
2026-04-28 10:43 63.94888 -20.42702 21309 ft 358 kts 263°
2026-04-28 10:43 63.95087 -20.48314 20787 ft 354 kts 262°
2026-04-28 10:43 63.95262 -20.53872 20292 ft 351 kts 262°
2026-04-28 10:44 63.95440 -20.59368 19790 ft 345 kts 262°
2026-04-28 10:44 63.95607 -20.64709 19303 ft 342 kts 262°
2026-04-28 10:44 63.95799 -20.70082 18835 ft 342 kts 267°
2026-04-28 10:44 63.96652 -20.75295 18370 ft 368 kts 292°
2026-04-28 10:45 63.98299 -20.79850 17840 ft 375 kts 301°
2026-04-28 10:45 64.00065 -20.84202 17272 ft 373 kts 301°
2026-04-28 10:45 64.01835 -20.88511 16674 ft 371 kts 302°
2026-04-28 10:45 64.03582 -20.92809 16086 ft 368 kts 301°
2026-04-28 10:46 64.05288 -20.97120 15508 ft 364 kts 300°
2026-04-28 10:46 64.06924 -21.01385 14951 ft 360 kts 300°
2026-04-28 10:46 64.08552 -21.05705 14379 ft 358 kts 300°
2026-04-28 10:46 64.10166 -21.10018 13867 ft 356 kts 299°
2026-04-28 10:47 64.11775 -21.14336 13264 ft 356 kts 299°
2026-04-28 10:47 64.13367 -21.18660 12644 ft 355 kts 299°
2026-04-28 10:47 64.14949 -21.22992 12041 ft 354 kts 299°
2026-04-28 10:47 64.16523 -21.27314 11448 ft 352 kts 300°
2026-04-28 10:48 64.18082 -21.31545 11105 ft 341 kts 300°
2026-04-28 10:48 64.19589 -21.35615 10766 ft 330 kts 300°
2026-04-28 10:48 64.21058 -21.39561 10450 ft 320 kts 300°
2026-04-28 10:48 64.22454 -21.43366 10153 ft 312 kts 299°
2026-04-28 10:49 64.23830 -21.47157 9862 ft 306 kts 299°
2026-04-28 10:49 64.25170 -21.50841 9544 ft 294 kts 299°
2026-04-28 10:49 64.26460 -21.54441 9149 ft 290 kts 300°
2026-04-28 10:49 64.27750 -21.58065 8505 ft 296 kts 300°
2026-04-28 10:50 64.29061 -21.61651 8137 ft 289 kts 300°
2026-04-28 10:50 64.29930 -21.64021 7653 ft 295 kts 300°
2026-04-28 10:50 64.31690 -21.68814 7021 ft 296 kts 300°
2026-04-28 10:50 64.32967 -21.72161 6569 ft 259 kts 300°
2026-04-28 10:51 64.34029 -21.75143 5967 ft 222 kts 287°
2026-04-28 10:51 64.34424 -21.78390 5085 ft 208 kts 262°
2026-04-28 10:51 64.34419 -21.81723 4852 ft 205 kts 257°
2026-04-28 10:51 64.34322 -21.84989 4570 ft 206 kts 255°
2026-04-28 10:52 64.34170 -21.88333 4094 ft 209 kts 254°
2026-04-28 10:52 64.34028 -21.91506 3846 ft 191 kts 253°
2026-04-28 10:52 64.33466 -21.93912 3617 ft 162 kts 211°
2026-04-28 10:52 64.32497 -21.94762 3528 ft 144 kts 195°
2026-04-28 10:53 64.31527 -21.95363 3372 ft 148 kts 193°
2026-04-28 10:53 64.30514 -21.95852 3517 ft 148 kts 189°
2026-04-28 10:53 64.29537 -21.96151 3576 ft 132 kts 187°
2026-04-28 10:53 64.28659 -21.96297 3508 ft 123 kts 185°
2026-04-28 10:54 64.27822 -21.96316 3295 ft 120 kts 184°
2026-04-28 10:54 64.27030 -21.96313 3205 ft 109 kts 184°
2026-04-28 10:54 64.26295 -21.96267 2999 ft 107 kts 181°
2026-04-28 10:54 64.25572 -21.96131 2797 ft 103 kts 180°
2026-04-28 10:55 64.24876 -21.95996 2626 ft 98 kts 180°
2026-04-28 10:55 64.24211 -21.95887 2469 ft 93 kts 181°
2026-04-28 10:55 64.23577 -21.95781 2331 ft 91 kts 181°
2026-04-28 10:55 64.22939 -21.95688 2174 ft 92 kts 181°
2026-04-28 10:56 64.22316 -21.95583 2090 ft 89 kts 181°
2026-04-28 10:56 64.21692 -21.95479 1938 ft 91 kts 180°
2026-04-28 10:56 64.21058 -21.95331 1788 ft 92 kts 179°
2026-04-28 10:56 64.20426 -21.95172 1626 ft 92 kts 180°
2026-04-28 10:57 64.19799 -21.95061 1472 ft 93 kts 179°
2026-04-28 10:57 64.19153 -21.94940 1347 ft 93 kts 179°
2026-04-28 10:57 64.18495 -21.94823 1184 ft 96 kts 179°
2026-04-28 10:57 64.17825 -21.94713 1031 ft 98 kts 179°
2026-04-28 10:58 64.17146 -21.94564 887 ft 100 kts 176°
2026-04-28 10:58 64.16441 -21.94416 715 ft 100 kts 175°
2026-04-28 10:58 64.15738 -21.94255 549 ft 102 kts 175°
2026-04-28 10:58 64.15033 -21.94129 411 ft 102 kts 176°
2026-04-28 10:59 64.14333 -21.94032 253 ft 103 kts 174°
2026-04-28 10:59 64.13622 -21.93886 70 ft 101 kts 175°
2026-04-28 10:59 64.12982 -21.93764 50 ft 80 kts 175°
2026-04-28 10:59 64.12591 -21.93703 52 ft 42 kts 176°
2026-04-28 11:00 64.12443 -21.93638 53 ft 11 kts 118°
2026-04-28 11:00 64.12446 -21.93489 53 ft 8 kts 82°
2026-04-28 11:00 64.12469 -21.93424 52 ft 6 kts 358°
2026-04-28 11:00 64.12518 -21.93439 53 ft 8 kts 354°
2026-04-28 11:01 64.12581 -21.93453 53 ft 10 kts 354°
2026-04-28 11:01 64.12661 -21.93468 49 ft 12 kts 356°
2026-04-28 11:01 64.12744 -21.93482 53 ft 12 kts 356°
2026-04-28 11:01 64.12826 -21.93495 50 ft 13 kts 356°
2026-04-28 11:02 64.12916 -21.93531 50 ft 13 kts 323°
2026-04-28 11:02 64.13007 -21.93568 45 ft 15 kts
2026-04-28 11:02 64.13092 -21.93625 43 ft 14 kts 309°
2026-04-28 11:02 64.13144 -21.93810 47 ft 14 kts 294°
2026-04-28 11:03 64.13146 -21.94022 47 ft 13 kts 264°
2026-04-28 11:03 64.13138 -21.94199 47 ft 9 kts 263°
2026-04-28 11:03 64.13130 -21.94333 47 ft 8 kts 262°
2026-04-28 11:03 64.13127 -21.94429 47 ft 5 kts 294°
2026-04-28 11:04 64.13155 -21.94467 47 ft 5 kts 323°
2026-04-28 11:04 64.13167 -21.94495 44 ft 0 kts 310°